DW3929 Weather Reports


Display with metric or nautical units.
time (UTC)temp
F
wind
direction
speed
MPH
gust
MPH
rain 1hr
in
rain 24hr
in
rain mn
in
humidity
%
barometer
mb
20260503034845 56 360 0.0 0.0 0.00 0.00 0.00 92 1021.0
20260503034322 57 360 0.0 0.0 0.00 0.00 0.00 92 1021.0
20260503033823 57 360 0.0 0.0 0.00 0.00 0.00 92 1020.9
20260503033323 57 360 0.0 0.0 0.00 0.00 0.00 92 1020.9
20260503032823 57 360 0.0 0.0 0.00 0.00 0.00 92 1020.8
20260503032321 57 360 0.0 0.0 0.00 0.00 0.00 91 1020.8
20260503031823 57 360 0.0 0.0 0.00 0.00 0.00 91 1020.5
20260503031342 58 360 0.0 0.0 0.00 0.00 0.00 91 1020.5
20260503030841 58 360 0.0 0.0 0.00 0.00 0.00 91 1020.6
20260503030320 58 360 0.0 0.0 0.00 0.00 0.00 91 1020.7
20260503025837 58 360 0.0 0.0 0.00 0.00 0.00 90 1020.6
20260503025338 59 360 0.0 0.0 0.00 0.00 0.00 89 1020.6
20260503024814 59 360 0.0 0.0 0.00 0.00 0.00 89 1020.4
20260503024314 59 360 0.0 0.0 0.00 0.00 0.00 88 1020.3
20260503023815 59 360 0.0 0.0 0.00 0.00 0.00 88 1020.2
20260503023315 60 360 0.0 0.0 0.00 0.00 0.00 87 1020.1
20260503022813 60 360 0.0 0.0 0.00 0.00 0.00 87 1020.1
20260503022315 60 360 0.0 0.0 0.00 0.00 0.00 86 1019.9
20260503021816 60 360 0.0 0.0 0.00 0.00 0.00 86 1019.8
20260503021316 61 360 0.0 0.0 0.00 0.00 0.00 85 1019.8
20260503020816 61 360 0.0 0.0 0.00 0.00 0.00 84 1019.7
20260503020316 61 360 0.0 0.0 0.00 0.00 0.00 83 1019.7
20260503015816 62 360 0.0 0.0 0.00 0.00 0.00 81 1019.7
20260503015313 62 360 0.0 0.0 0.00 0.00 0.00 80 1019.7
20260503014832 63 360 0.0 0.0 0.00 0.00 0.00 79 1019.7
20260503014331 63 360 0.0 0.0 0.00 0.00 0.00 78 1019.7
20260503013812 64 360 0.0 0.0 0.00 0.00 0.00 77 1019.6
20260503013331 64 360 0.0 0.0 0.00 0.00 0.00 76 1019.6
20260503012851 65 360 0.0 0.0 0.00 0.00 0.00 74 1019.6
20260503012350 65 360 0.0 0.0 0.00 0.00 0.00 73 1019.5
20260503011828 66 360 0.0 0.0 0.00 0.00 0.00 72 1019.5
20260503011348 66 360 0.0 0.0 0.00 0.00 0.00 71 1019.5
20260503010828 67 360 0.0 1.0 0.00 0.00 0.00 70 1019.4
20260503010348 67 360 0.0 1.0 0.00 0.00 0.00 68 1019.4
20260503005828 68 360 0.0 0.0 0.00 0.00 0.00 67 1019.4
20260503005329 68 360 0.0 1.0 0.00 0.00 0.00 67 1019.4
20260503004828 69 360 0.0 1.0 0.00 0.00 0.00 65 1019.3
20260503004327 69 360 0.0 0.0 0.00 0.00 0.00 64 1019.3
20260503003845 70 360 0.0 2.0 0.00 0.00 0.00 65 1019.2
20260503003342 71 360 0.0 3.0 0.00 0.00 0.00 62 1019.3
20260503002842 71 360 1.0 4.0 0.00 0.00 0.00 62 1019.2
20260503002318 72 360 1.0 4.0 0.00 0.00 0.00 59 1019.2
20260503001819 72 360 1.0 4.0 0.00 0.00 0.00 54 1019.1
20260503001317 72 360 2.0 5.0 0.00 0.00 0.00 52 1019.1
20260503000817 73 360 2.0 6.0 0.00 0.00 0.00 52 1019.1
20260503000319 73 360 2.0 8.0 0.00 0.00 0.00 50 1019.1
20260502235818 73 360 3.0 8.0 0.00 0.00 0.00 52 1019.1
20260502235318 73 360 2.0 5.0 0.00 0.00 0.00 51 1019.0
20260502234838 74 360 2.0 5.0 0.00 0.00 0.00 53 1019.0
20260502234315 74 360 1.0 5.0 0.00 0.00 0.00 52 1018.9
20260502233837 75 360 1.0 5.0 0.00 0.00 0.00 49 1018.9
20260502233315 75 360 1.0 6.0 0.00 0.00 0.00 48 1018.9
20260502232817 76 360 1.0 8.0 0.00 0.00 0.00 48 1018.9
20260502232317 76 360 1.0 9.0 0.00 0.00 0.00 48 1018.8
20260502231813 76 360 3.0 9.0 0.00 0.00 0.00 49 1018.9
20260502231331 77 360 4.0 9.0 0.00 0.00 0.00 48 1018.9
20260502230852 77 360 3.0 6.0 0.00 0.00 0.00 49 1018.9
20260502230330 77 360 2.0 5.0 0.00 0.00 0.00 49 1018.9
20260502225829 77 360 3.0 6.0 0.00 0.02 0.00 47 1018.8
20260502225326 77 360 2.0 8.0 0.00 0.02 0.00 51 1018.7
20260502224825 77 360 3.0 9.0 0.00 0.02 0.00 49 1018.7
20260502224325 78 360 3.0 8.0 0.00 0.02 0.00 46 1018.8
20260502223825 78 360 3.0 8.0 0.00 0.02 0.00 48 1018.8
20260502223325 78 360 2.0 8.0 0.00 0.02 0.00 51 1018.9
20260502222825 78 360 2.0 9.0 0.00 0.02 0.00 46 1018.9
20260502222347 78 360 4.0 9.0 0.00 0.02 0.00 51 1018.9
20260502221844 77 360 2.0 9.0 0.00 0.02 0.00 49 1019.0
20260502221342 77 360 4.0 10.0 0.00 0.02 0.00 47 1019.1
20260502220839 77 360 3.0 11.0 0.00 0.02 0.00 48 1019.1
20260502220318 78 360 4.0 11.0 0.00 0.02 0.00 50 1019.1
20260502215817 78 360 3.0 8.0 0.00 0.08 0.00 48 1019.1
20260502215317 78 360 1.0 8.0 0.00 0.08 0.00 46 1019.0
20260502214817 78 360 2.0 9.0 0.00 0.08 0.00 52 1019.0
20260502214316 78 360 3.0 11.0 0.00 0.08 0.00 48 1019.0
20260502213816 78 360 4.0 11.0 0.00 0.08 0.00 52 1019.1
20260502213315 78 360 2.0 6.0 0.00 0.08 0.00 52 1019.2
20260502212830 77 360 1.0 9.0 0.00 0.08 0.00 51 1019.2
20260502212329 77 360 4.0 10.0 0.00 0.08 0.00 47 1019.3
20260502211827 77 360 4.0 11.0 0.00 0.08 0.00 48 1019.4
20260502211328 77 360 4.0 11.0 0.00 0.08 0.00 50 1019.5
20260502210829 77 360 4.0 11.0 0.00 0.08 0.00 50 1019.5
20260502210328 78 360 5.0 11.0 0.00 0.08 0.00 47 1019.6
20260502205828 77 360 4.0 11.0 0.00 0.08 0.00 50 1019.7
20260502205328 77 360 3.0 9.0 0.00 0.08 0.00 48 1019.8
20260502204848 77 360 3.0 9.0 0.00 0.08 0.00 55 1019.9
20260502204324 77 360 4.0 12.0 0.00 0.08 0.00 52 1019.9
20260502203824 77 360 5.0 10.0 0.00 0.08 0.00 51 1019.9
20260502203324 77 360 3.0 12.0 0.00 0.08 0.00 49 1020.0
20260502202844 77 360 5.0 12.0 0.00 0.08 0.00 50 1020.1
20260502202320 77 360 3.0 11.0 0.00 0.08 0.00 56 1020.1
20260502201840 76 360 4.0 11.0 0.00 0.08 0.00 52 1020.2
20260502201317 76 360 4.0 13.0 0.00 0.08 0.00 52 1020.3
20260502200852 76 360 6.0 13.0 0.00 0.08 0.00 52 1020.4
20260502200351 76 360 3.0 13.0 0.00 0.08 0.00 51 1020.3
20260502195830 76 360 5.0 12.0 0.00 0.12 0.00 53 1020.4
20260502195329 76 360 2.0 12.0 0.00 0.12 0.00 53 1020.5
20260502194828 76 360 4.0 11.0 0.00 0.12 0.00 51 1020.5
20260502194347 76 360 4.0 11.0 0.00 0.12 0.00 51 1020.5
20260502193825 76 360 4.0 11.0 0.00 0.12 0.00 50 1020.5
20260502193323 76 360 4.0 12.0 0.00 0.12 0.00 53 1020.5
20260502192821 75 360 3.0 13.0 0.00 0.12 0.00 54 1020.6
20260502192341 75 360 6.0 13.0 0.00 0.12 0.00 56 1020.6
20260502191839 75 360 4.0 10.0 0.00 0.12 0.00 58 1020.6
20260502191318 75 360 4.0 9.0 0.00 0.12 0.00 53 1020.7
20260502190816 75 360 5.0 9.0 0.00 0.12 0.00 53 1020.7
20260502190314 75 360 2.0 16.0 0.00 0.12 0.00 53 1020.8
20260502185815 75 360 6.0 16.0 0.00 0.20 0.00 54 1020.9
20260502185312 75 360 5.0 11.0 0.00 0.20 0.00 52 1020.9
20260502184830 74 360 4.0 10.0 0.00 0.20 0.00 59 1020.9
20260502184329 74 360 4.0 13.0 0.00 0.20 0.00 55 1020.9
20260502183830 74 360 4.0 15.0 0.00 0.20 0.00 53 1021.0
20260502183330 74 360 4.0 10.0 0.00 0.20 0.00 55 1021.1
20260502182828 74 360 3.0 10.0 0.00 0.20 0.00 57 1021.1
20260502182328 74 360 4.0 10.0 0.00 0.20 0.00 57 1021.2
20260502181826 74 360 2.0 9.0 0.00 0.20 0.00 60 1021.3
20260502181325 73 360 3.0 11.0 0.00 0.20 0.00 54 1021.4
20260502180825 73 360 4.0 10.0 0.00 0.20 0.00 61 1021.5
20260502180324 73 360 4.0 10.0 0.00 0.20 0.00 58 1021.6
20260502170330 70 360 3.0 10.0 0.00 0.29 0.00 61 1022.4
20260502164330 70 360 4.0 10.0 0.00 0.30 0.00 64 1022.5
20260502163828 69 360 3.0 11.0 0.00 0.30 0.00 66 1022.5
20260502163343 69 360 4.0 11.0 0.00 0.30 0.00 61 1022.4
20260502162821 69 360 2.0 15.0 0.00 0.30 0.00 63 1022.5
20260502162341 69 360 5.0 15.0 0.00 0.30 0.00 65 1022.5
20260502161819 69 360 3.0 12.0 0.00 0.30 0.00 67 1022.4
20260502161320 68 360 3.0 10.0 0.00 0.30 0.00 69 1022.4
20260502160818 68 360 3.0 12.0 0.00 0.30 0.00 66 1022.5
20260502160317 68 360 5.0 12.0 0.00 0.30 0.00 67 1022.4
20260502152328 65 360 5.0 8.0 0.00 0.35 0.00 74 1022.2
20260502151828 65 360 2.0 10.0 0.00 0.35 0.00 77 1022.2
20260502151327 65 360 4.0 10.0 0.00 0.35 0.00 74 1022.2
20260502150824 64 360 2.0 9.0 0.00 0.35 0.00 77 1022.2
20260502150324 64 360 4.0 9.0 0.00 0.35 0.00 79 1022.2
20260502130328 53 360 1.0 6.0 0.00 0.51 0.00 99 1021.1
20260502123346 50 360 1.0 2.0 0.00 0.62 0.00 98 1020.6
20260502122844 50 360 0.0 2.0 0.00 0.62 0.00 98 1020.4
20260502122321 50 360 0.0 1.0 0.00 0.62 0.00 97 1020.3
20260502121819 50 360 0.0 2.0 0.00 0.62 0.00 97 1020.2
20260502121338 50 360 1.0 2.0 0.00 0.62 0.00 97 1020.2
20260502120836 50 360 0.0 1.0 0.00 0.62 0.00 97 1020.2
20260502120313 50 360 0.0 1.0 0.00 0.62 0.00 97 1020.1
20260502115813 50 360 0.0 2.0 0.00 0.85 0.00 98 1020.1
20260502115313 50 360 0.0 3.0 0.00 0.85 0.00 97 1020.1
20260502114848 50 360 1.0 3.0 0.00 0.85 0.00 98 1020.0
20260502114328 50 360 0.0 5.0 0.00 0.85 0.00 98 1019.8
20260502113825 50 360 2.0 5.0 0.00 0.85 0.00 98 1019.8
20260502113325 50 360 1.0 4.0 0.00 0.85 0.00 98 1019.8
20260502112823 50 360 0.0 3.0 0.00 0.85 0.00 97 1019.7
20260502112319 51 360 2.0 3.0 0.00 0.85 0.00 98 1019.7
20260502111842 51 360 1.0 4.0 0.00 0.85 0.00 97 1019.6
20260502111319 51 360 1.0 4.0 0.00 0.85 0.00 98 1019.5
20260502110819 51 360 0.0 3.0 0.00 0.85 0.00 98 1019.5
20260502110318 51 360 1.0 4.0 0.00 0.85 0.00 98 1019.5
20260502105818 51 360 1.0 4.0 0.00 1.03 0.00 98 1019.4
20260502105316 51 360 1.0 5.0 0.00 1.03 0.00 98 1019.4
20260502104836 50 360 1.0 3.0 0.00 1.03 0.00 98 1019.3
20260502104314 50 360 1.0 3.0 0.00 1.03 0.00 97 1019.2
20260502103813 50 360 0.0 2.0 0.00 1.03 0.00 97 1019.2
20260502103314 50 360 0.0 2.0 0.00 1.03 0.00 97 1019.1
20260502102832 51 360 0.0 2.0 0.00 1.03 0.00 97 1019.0
20260502102330 51 360 1.0 2.0 0.00 1.03 0.00 97 1018.9
20260502101830 51 360 0.0 2.0 0.00 1.03 0.00 97 1018.9
20260502101328 51 360 0.0 2.0 0.00 1.03 0.00 97 1018.9
20260502100827 51 360 0.0 2.0 0.00 1.03 0.00 97 1018.7
20260502100324 51 360 0.0 3.0 0.00 1.03 0.00 97 1018.5
20260502091321 52 360 1.0 6.0 0.00 1.13 0.00 97 1017.8
20260502090841 52 360 2.0 5.0 0.00 1.13 0.00 97 1017.8
20260502090340 52 360 1.0 6.0 0.00 1.13 0.00 97 1017.7
20260502071334 52 360 0.0 3.0 0.00 1.49 0.00 96 1017.5
20260502070814 52 360 0.0 2.0 0.00 1.49 0.00 96 1017.5
20260502070313 52 360 0.0 2.0 0.00 1.49 0.00 96 1017.5
20260502065831 53 360 0.0 3.0 0.00 1.74 0.00 95 1017.5
20260502065351 53 360 0.0 3.0 0.00 1.74 0.00 95 1017.3
20260502064830 53 360 1.0 6.0 0.00 1.74 0.00 95 1017.4
20260502064330 53 360 1.0 6.0 0.00 1.74 0.00 95 1017.4
20260502063828 53 360 1.0 6.0 0.00 1.74 0.00 95 1017.4
20260502063326 53 360 2.0 6.0 0.00 1.74 0.00 95 1017.5
20260502062853 53 360 3.0 6.0 0.00 1.74 0.00 95 1017.6
20260502062330 53 360 2.0 6.0 0.00 1.74 0.00 95 1017.5
20260502061829 53 360 2.0 8.0 0.00 1.74 0.00 95 1017.5
20260502061329 53 360 2.0 8.0 0.00 1.74 0.00 94 1017.5
20260502060829 53 360 2.0 8.0 0.00 1.74 0.00 94 1017.5
20260502060348 53 360 2.0 5.0 0.00 1.74 0.00 94 1017.5
20260502055849 53 360 1.0 5.0 0.00 1.74 0.00 94 1017.6
20260502055342 53 360 2.0 8.0 0.00 1.74 0.00 93 1017.5
20260502054838 53 360 2.0 8.0 0.00 1.74 0.00 93 1017.4
20260502054318 53 360 1.0 5.0 0.00 1.74 0.00 93 1017.4
20260502053819 53 360 2.0 5.0 0.00 1.74 0.00 92 1017.5
20260502053319 53 360 1.0 6.0 0.00 1.74 0.00 92 1017.5
20260502052836 53 360 2.0 8.0 0.00 1.74 0.00 92 1017.5
20260502052315 53 360 3.0 8.0 0.00 1.74 0.00 92 1017.4
20260502051833 54 360 2.0 6.0 0.00 1.74 0.00 92 1017.5
20260502051352 54 360 2.0 9.0 0.00 1.74 0.00 92 1017.6
20260502050851 54 360 3.0 14.0 0.00 1.74 0.00 91 1017.5
20260502050338 54 360 4.0 13.0 0.00 1.74 0.00 91 1017.4
20260502045830 54 360 5.0 13.0 0.00 1.75 1.74 91 1017.5
20260502045331 54 360 2.0 12.0 0.00 1.75 1.74 92 1017.6
20260502044831 54 360 3.0 12.0 0.00 1.75 1.74 92 1017.5
20260502044329 54 360 4.0 14.0 0.00 1.75 1.74 92 1017.4
20260502043846 55 360 4.0 14.0 0.00 1.75 1.74 92 1017.4
20260502043345 55 360 5.0 10.0 0.00 1.75 1.74 93 1017.3
20260502042823 55 360 4.0 10.0 0.00 1.75 1.74 93 1017.2
20260502042342 55 360 3.0 13.0 0.00 1.75 1.74 94 1017.2
20260502041818 55 360 4.0 15.0 0.00 1.75 1.74 94 1017.2
20260502041333 55 360 6.0 15.0 0.00 1.75 1.74 94 1017.2
20260502040813 55 360 4.0 12.0 0.00 1.75 1.74 94 1017.1
20260502040352 56 360 4.0 14.0 0.00 1.75 1.74 95 1017.1
20260502035831 56 360 6.0 14.0 0.00 1.75 1.74 95 1017.0
20260502035329 56 360 4.0 13.0 0.00 1.75 1.74 95 1017.0